Regional Weather Roundup
Issued by NWS Cleveland, OH

Home | Current Version | Previous Version | Text Only | Print | Product List | Glossary Off
Versions: 1 2 3 4 5 6 7 8 9 10 11 12 13 14 15 16 17 18 19 20 21 22 23 24 25 26 27 28 29 30 31 32 33 34 35 36 37 38 39 40 41 42 43 44 45 46 47 48 49 50

000
ASUS41 KCLE 020310
RWRCLE
OHIO REGIONAL WEATHER ROUNDUP
NATIONAL WEATHER SERVICE CLEVELAND, OH
1100 PM EDT MON JUN 01 2015

NOTE: "FAIR" INDICATES FEW OR NO CLOUDS BELOW 12,000 FEET WITH NO
SIGNIFICANT WEATHER AND/OR OBSTRUCTIONS TO VISIBILITY.

OHZ001>008-015>018-024>027-034-035-043-044-020400-
   NORTHWEST OHIO

CITY           SKY/WX    TMP DP  RH WIND       PRES   REMARKS
DEFIANCE       MOCLDY    53  47  79 E3        30.21R
FINDLAY        CLOUDY    54  48  80 NE6       30.19S
TOLEDO EXPRESS CLOUDY    49  47  93 CALM      30.21R
TOLEDO EXEC    CLOUDY    57  46  66 NE6       30.22R
LIMA           CLOUDY    51  47  86 NE5       30.19S
$$

OHZ009>014-019>023-028>033-038-089-020400-
   NORTHEAST OHIO

CITY           SKY/WX    TMP DP  RH WIND       PRES   REMARKS
CLE-HOPKINS    CLOUDY    52  47  83 NE6       30.20R
CLE-LAKEFRONT  CLOUDY    54  47  77 E7        30.18R
CUY CO. ARPT   MOCLDY    52 N/A N/A NE7       30.20
LORAIN-ELYRIA  CLOUDY    50  47  89 N6        30.20R
ASHTABULA      CLOUDY    51  48  89 CALM      30.19R
AKRON-CANTON   CLOUDY    52  46  80 NE10      30.16S
WOOSTER        CLOUDY    51  47  86 N7        30.18R
MANSFIELD      CLOUDY    49  48  97 N7        30.18R
YOUNGSTOWN     LGT RAIN  51  48  89 N6        30.17R
$$

OHZ042-051>053-060>062-070>072-077>081-020400-
  SOUTHWEST OHIO

CITY           SKY/WX    TMP DP  RH WIND       PRES   REMARKS
CINC-COVINGTON CLOUDY    57  50  77 NE8       30.15R
CINC-LUNKEN    CLOUDY    56  51  84 N8        30.17R
HAMILTON       CLOUDY    57  51  80 NE5       30.18R
DAYTON         MOCLDY    52  48  86 NE9       30.17S
WRIGHT-PAT AFB PTCLDY    53  49  86 NE7       30.16S
DAYTON GENERAL CLOUDY    53  49  86 NE10      30.15R
WILMINGTON     CLOUDY    52  48  86 NE9       30.15R
$$

OHZ036-037-039>041-045>050-054>059-063>069-073>076-082>088-020400-
  CENTRAL AND SOUTHEAST OHIO

CITY           SKY/WX    TMP DP  RH WIND       PRES   REMARKS
COLUMBUS       MOCLDY    52  48  86 NE7       30.15S
OSU AIRPORT    CLOUDY    52  48  86 N7        30.16S
BOLTON FIELD   NOT AVBL
RICKENBACK AFB CLOUDY    53  49  85 NE7       30.15F
NEWARK         CLOUDY    53  48  83 NE5       30.16R
MARION         CLOUDY    50  47  89 N8        30.18F
LANCASTER      CLOUDY    54  49  83 N8        30.16R
ZANESVILLE     NOT AVBL
NEW PHILLY     CLOUDY    53  48  83 N3        30.17R
$$


USA.gov is the U.S. government's official web portal to all federal, state and local government web resources and services.